Poplar Bluff, MO

6:33 PM CDT on April 30, 2017 (GMT -0500)
Poplar Bluff Municipal

Weather History for KPOF - March, 2014

Change the Weather History Date:

Thursday, March 27, 2014

  Actual Average Record
Temperature  
Mean Temperature 53 °F -  
Max Temperature 63 °F 60 °F 83 °F (1945)
Min Temperature 46 °F 39 °F 16 °F (1955)
Degree Days  
Heating Degree Days 12    
Growing Degree Days 3 (Base 50)    
Moisture  
Dew Point 42 °F    
Average Humidity 63    
Maximum Humidity 84    
Minimum Humidity 41    
Precipitation  
Precipitation 0.14 in - - ()
Sea Level Pressure  
Sea Level Pressure 29.84 in    
Wind  
Wind Speed 13 mph (South)    
Max Wind Speed 22 mph    
Max Gust Speed 31 mph    
Visibility 9 miles    
Events Rain    
Averages and records for this station are not official NWS values.
T = Trace of Precipitation, MM = Missing Value Source: NWS Daily Summary

Daily Weather History Graph

Daily Weather History Graph

Search for Another Location

Airport or City:

Trip Planner

Search our weather history database for the weather conditions in past years. The results will help you decide how hot, cold, wet, or windy it might be!

Date:

Astronomy

Mar. 27, 2014 Rise Set
Actual Time 6:54 AM CDT 7:19 PM CDT
Civil Twilight 6:28 AM CDT 7:45 PM CDT
Nautical Twilight 5:58 AM CDT 8:15 PM CDT
Astronomical Twilight 5:27 AM CDT 8:46 PM CDT
Moon 4:40 AM CDT (3/27) 4:11 PM CDT (3/27)
Length of Visible Light 13h 16m
Length of Day
12h 24m
Waning Crescent, 13% of the Moon is Illuminated
Mar 27
Waning Crescent
Mar 30
New
Apr 7
First Quarter
Apr 15
Full
Apr 22
Last Quarter

Hourly Weather History & Observations

Time (CDT) Temp. Windchill Dew Point Humidity Pressure Visibility Wind Dir Wind Speed Gust Speed Precip Events Conditions
12:53 AM 46.0 °F 42.5 °F 28.9 °F 51% 30.04 in 10.0 mi SE 6.9 mph - N/A   Overcast
1:53 AM 46.9 °F - 28.9 °F 50% 30.02 in 10.0 mi SSE 9.2 mph - 0.00 in   Overcast
2:53 AM 48.0 °F - 27.0 °F 44% 29.98 in 10.0 mi SSE 13.8 mph - N/A   Overcast
3:53 AM 48.9 °F - 26.1 °F 41% 29.96 in 10.0 mi South 11.5 mph - N/A   Overcast
4:53 AM 50.0 °F - 27.0 °F 41% 29.94 in 10.0 mi South 15.0 mph - N/A   Overcast
5:53 AM 48.9 °F - 28.0 °F 44% 29.94 in 10.0 mi South 11.5 mph - N/A   Scattered Clouds
6:53 AM 48.9 °F - 28.9 °F 46% 29.94 in 10.0 mi South 12.7 mph - N/A   Mostly Cloudy
7:53 AM 50.0 °F - 28.9 °F 44% 29.94 in 10.0 mi South 16.1 mph - N/A   Overcast
8:53 AM 51.1 °F - 30.0 °F 44% 29.94 in 10.0 mi South 15.0 mph - N/A   Overcast
9:07 AM 51.1 °F - 30.0 °F 44% 29.93 in 10.0 mi South 16.1 mph 23.0 mph N/A   Overcast
9:53 AM 51.1 °F - 32.0 °F 48% 29.94 in 10.0 mi South 12.7 mph - N/A   Overcast
10:53 AM 52.0 °F - 34.0 °F 50% 29.92 in 10.0 mi South 16.1 mph - N/A   Overcast
11:53 AM 55.0 °F - 39.0 °F 55% 29.90 in 10.0 mi South 16.1 mph 26.5 mph N/A   Overcast
12:53 PM 55.9 °F - 41.0 °F 57% 29.86 in 10.0 mi South 16.1 mph - N/A   Overcast
1:09 PM 57.0 °F - 41.0 °F 55% 29.84 in 10.0 mi South 17.3 mph 25.3 mph N/A   Overcast
1:53 PM 59.0 °F - 43.0 °F 55% 29.82 in 10.0 mi South 16.1 mph 23.0 mph N/A   Overcast
2:53 PM 60.1 °F - 44.1 °F 55% 29.76 in 10.0 mi South 13.8 mph - N/A   Overcast
3:53 PM 60.1 °F - 46.9 °F 62% 29.76 in 10.0 mi SSW 11.5 mph - 0.00 in Rain Light Rain
4:44 PM 57.9 °F - 50.0 °F 75% 29.75 in 6.0 mi South 20.7 mph 31.1 mph 0.03 in Rain Light Rain
4:53 PM 57.9 °F - 51.1 °F 78% 29.75 in 8.0 mi South 21.9 mph 31.1 mph 0.03 in Rain Light Rain
5:23 PM 57.0 °F - 51.1 °F 81% 29.74 in 10.0 mi South 16.1 mph 25.3 mph 0.00 in   Overcast
5:53 PM 57.9 °F - 51.1 °F 78% 29.74 in 10.0 mi South 16.1 mph 25.3 mph 0.00 in Rain Light Rain
6:53 PM 57.0 °F - 51.1 °F 81% 29.75 in 4.0 mi South 12.7 mph 24.2 mph 0.02 in Rain Light Rain
7:03 PM 57.0 °F - 51.1 °F 81% 29.74 in 4.0 mi South 15.0 mph - 0.01 in Rain Light Rain
7:53 PM 57.0 °F - 51.1 °F 81% 29.74 in 8.0 mi South 16.1 mph 25.3 mph 0.08 in Rain Light Rain
8:20 PM 57.0 °F - 51.1 °F 81% 29.75 in 10.0 mi South 11.5 mph 23.0 mph 0.00 in   Overcast
8:53 PM 57.0 °F - 51.1 °F 81% 29.76 in 10.0 mi SW 4.6 mph - 0.00 in Rain Light Rain
9:04 PM 57.0 °F - 52.0 °F 83% 29.77 in 8.0 mi SW 5.8 mph - 0.00 in Rain Light Rain
9:53 PM 57.9 °F - 53.1 °F 84% 29.75 in 10.0 mi South 16.1 mph - 0.01 in   Overcast
10:07 PM 59.0 °F - 53.1 °F 81% 29.75 in 10.0 mi South 13.8 mph - N/A   Overcast
10:53 PM 60.1 °F - 54.0 °F 80% 29.76 in 10.0 mi South 13.8 mph - N/A   Overcast
11:53 PM 60.1 °F - 54.0 °F 80% 29.75 in 10.0 mi South 11.5 mph - N/A   Overcast